[Iaude] MPEC B17: 2024 AW4 [a=1.64,e=0.41,i=13.9,H=20.6]
    mpec at marsden.cfa.harvard.edu 
    mpec at marsden.cfa.harvard.edu
       
    Wed Jan 17 02:48:05 EST 2024
    
    
  
M.P.E.C. 2024-B17                              Issued 2024 January 17, 07:46 UT
     The Minor Planet Electronic Circulars contain information on unusual
         minor planets, routine data on comets and natural satellites,
         and occasional editorial announcements.  They are published
    on behalf of Division F of the International Astronomical Union by the
          Minor Planet Center, Smithsonian Astrophysical Observatory,
                          Cambridge, MA 02138, U.S.A.
			  
             Prepared using the Tamkin Foundation Computer Network
                              MPC at CFA.HARVARD.EDU
            URL https://www.minorplanetcenter.net/    ISSN 1523-6714
                                    2024 AW4                                    
Observations:
     K24A04W 1C2024 01 10.39737 08 57 31.00 +20 56 14.0          22.0 GVEB017G96
     K24A04W 1C2024 01 10.40250 08 57 30.43 +20 56 20.6                VEB017G96
     K24A04W 1C2024 01 10.40765 08 57 29.91 +20 56 26.3          21.2 GVEB017G96
     K24A04W* C2024 01 15.66946 08 48 24.40 +22 38 13.4          21.7 rVEB017O18
     K24A04W  C2024 01 15.67454 08 48 23.85 +22 38 19.0          21.7 rVEB017O18
     K24A04W  C2024 01 15.67966 08 48 23.30 +22 38 25.1          22.0 rVEB017O18
     K24A04W KC2024 01 16.24859608 47 22.103+22 49 11.46         21.32GVEB017V06
     K24A04W KC2024 01 16.25336208 47 21.570+22 49 16.25         21.92GVEB017V06
     K24A04W KC2024 01 16.25812308 47 21.048+22 49 21.47         21.17GVEB017V06
     K24A04W KC2024 01 16.26288308 47 20.515+22 49 26.83         22.14GVEB017V06
     K24A04W KC2024 01 17.28643208 45 29.600+23 08 36.00         21.47GVEB017V06
     K24A04W KC2024 01 17.29040308 45 29.150+23 08 40.50         21.73GVEB017V06
     K24A04W KC2024 01 17.29437308 45 28.690+23 08 45.20               VEB017V06
     K24A04W KC2024 01 17.29834308 45 28.240+23 08 49.50         22.16GVEB017V06
Observer details:
G96 Mt. Lemmon Survey.  Observer J. K. Hogan.  Measurers B. Gray, D. Rankin,
    F. C. Shelly.  1.5-m reflector + 10K CCD.
O18 WFST, Lenghu.  Observers Z. Q. Li, S. X. Li, Q. Y. Hai.  Measurers B. Li,
    H. B. Zhao, Z. J. Xu, G. T. Zhaori.  2.5-m f/2.48 reflector + CCD.
V06 Catalina Sky Survey-Kuiper.  Observer G. J. Leonard.  Measurers T. Beuden,
    V. F. Carvajal, D. Fay, J. B. Fazekas, D. C. Fuls, A. R. Gibbs, A. D.
    Grauer, H. Groeller, J. K. Hogan, R. A. Kowalski, S. M. Larson, G. J.
    Leonard, D. Rankin, R. L. Seaman, F. C. Shelly, K. W. Wierzchos.  1.55-m
    reflector + 1K CCD.
Orbital elements:
2024 AW4                                                 Earth MOID = 0.0853 AU
Epoch 2023 Sept. 13.0 TT = JDT 2460200.5                MPC                     
M  19.38553              (2000.0)            P               Q                  
n   0.47091297     Peri.  244.45910     +0.97385999     +0.04394827             
a   1.6362222      Node   112.34802     +0.02610439     +0.95295084             
e   0.4125238      Incl.   13.94290     -0.22564414     +0.29992206             
P   2.09           H   20.66          G   0.15           U   8                  
Residuals in seconds of arc
240110 G96  0.3+  0.3-    240115 O18  0.3+  0.0     240117 V06  0.2+  0.1-
240110 G96  0.3-  0.3+    240116 V06  0.0   0.6+    240117 V06  0.1+  0.1-
240110 G96  0.0   0.0     240116 V06  0.1-  0.0     240117 V06  0.1-  0.2+
240115 O18  0.1-  0.0     240116 V06  0.0   0.3-    240117 V06  0.1-  0.0
240115 O18  0.1+  0.2-    240116 V06  0.0   0.3-
Ephemeris:
2024 AW4                 a,e,i = 1.64, 0.41, 14                  q = 0.9612
Date    TT    R. A. (2000) Decl.     Delta      r    Elong.  Phase     V
2023 12 18    09 23 45.4 +13 53 09   0.8228  1.6152   126.5    29.3    22.6
...
2024 01 02    09 10 04.5 +18 12 08   0.7897  1.6973   146.2    18.8    22.3
...
2024 01 10    08 58 10.5 +20 48 27   0.7893  1.7392   157.6    12.5    22.1
...
2024 01 16    08 47 48.6 +22 44 31   0.7993  1.7698   166.0     7.7    22.0
2024 01 17    08 46 00.5 +23 03 17   0.8019  1.7748   167.3     7.0    21.9
2024 01 18    08 44 11.7 +23 21 49   0.8047  1.7798   168.6     6.3    21.9
...
2024 01 24    08 33 13.2 +25 06 49   0.8277  1.8093   173.7     3.4    21.9
...
2024 02 01    08 19 10.4 +27 05 44   0.8735  1.8473   167.3     6.8    22.2
...
2024 02 16    07 58 43.2 +29 33 57   1.0028  1.9147   148.3    15.7    22.9
A. U. Tomatic                (C) Copyright 2024 MPC           M.P.E.C. 2024-B17
    
    
More information about the Iaude
mailing list